Temp
-18 -18 -18 -19 -19 -19 -19 -19 -19 -19 -19 -19 -19 -19 -19 -19 -19 -19 -20 -20 -21 -21 -21 -22 -23 -25 -28 -29 -29 -30 -30 -29 -29 -29 -29 -29 -28 -28 -28 -28 -28 -28 -28 -28 -28 -28 -28 -28 -27 -27 -27 -27 -27 -27
-19 -19 -19 -19 -20 -19 -19 -19 -19 -19 -18 -19 -19 -19 -19 -20 -20 -20 -20 -21 -21 -21 -21 -22 -23 -24 -27 -29 -29 -29 -29 -29 -29 -29 -29 -29 -29 -29 -29 -28 -28 -28 -28 -28 -28 -28 -28 -27 -27 -27 -27 -27 -27 -27
-19 -19 -19 -19 -19 -19 -19 -19 -18 -18 -19 -19 -19 -19 -19 -20 -20 -20 -21 -21 -21 -21 -22 -22 -23 -24 -26 -28 -29 -29 -29 -29 -29 -29 -29 -29 -29 -29 -29 -28 -28 -28 -28 -28 -28 -28 -28 -28 -28 -28 -28 -28 -28 -28
-19 -20 -19 -19 -19 -19 -19 -19 -19 -19 -19 -19 -19 -19 -20 -20 -20 -21 -21 -21 -21 -22 -22 -22 -23 -24 -25 -27 -29 -29 -29 -29 -29 -29 -29 -29 -29 -29 -29 -29 -29 -29 -28 -28 -29 -28 -28 -28 -28 -29 -29 -29 -29 -28
-20 -20 -20 -20 -19 -19 -19 -19 -19 -19 -19 -19 -19 -20 -20 -20 -20 -21 -21 -21 -22 -22 -22 -23 -23 -23 -24 -26 -28 -29 -29 -29 -29 -29 -29 -29 -29 -29 -29 -29 -29 -29 -29 -29 -29 -29 -28 -28 -29 -29 -29 -28 -29 -29
-20 -20 -20 -20 -19 -19 -19 -19 -19 -19 -20 -20 -20 -20 -20 -20 -20 -21 -21 -21 -22 -22 -23 -23 -23 -23 -24 -25 -27 -28 -29 -29 -29 -29 -29 -29 -29 -29 -29 -29 -29 -29 -29 -29 -29 -29 -29 -29 -29 -29 -30 -29 -29 -28
-20 -20 -20 -20 -20 -20 -19 -19 -20 -20 -20 -20 -20 -20 -20 -20 -20 -20 -21 -21 -22 -22 -22 -23 -23 -23 -24 -24 -25 -26 -28 -28 -29 -29 -29 -29 -29 -29 -29 -29 -30 -30 -30 -29 -29 -30 -30 -30 -30 -30 -30 -30 -30 -30
-20 -20 -20 -20 -20 -20 -20 -20 -20 -20 -20 -20 -20 -20 -20 -20 -20 -20 -21 -21 -22 -22 -22 -23 -23 -23 -24 -24 -25 -25 -26 -27 -28 -28 -29 -29 -29 -29 -29 -30 -29 -29 -29 -30 -30 -30 -30 -30 -30 -30 -30 -30 -30 -30
-21 -20 -20 -20 -20 -20 -20 -20 -20 -20 -20 -20 -20 -20 -20 -20 -20 -20 -21 -21 -21 -22 -22 -23 -23 -24 -24 -24 -25 -25 -25 -26 -26 -27 -27 -28 -28 -29 -29 -30 -30 -30 -30 -30 -30 -30 -30 -30 -31 -31 -31 -30 -30 -30
-21 -20 -20 -20 -20 -20 -20 -20 -20 -20 -20 -20 -20 -20 -20 -20 -20 -20 -21 -21 -21 -22 -22 -23 -23 -24 -24 -24 -24 -25 -25 -25 -26 -26 -26 -26 -27 -28 -28 -29 -29 -29 -30 -30 -30 -30 -30 -30 -30 -30 -30 -30 -30 -30
-21 -21 -20 -20 -20 -20 -20 -20 -20 -20 -20 -20 -20 -20 -20 -20 -20 -20 -21 -21 -21 -22 -22 -23 -23 -24 -24 -24 -25 -25 -25 -25 -25 -26 -26 -26 -26 -27 -28 -28 -29 -29 -29 -29 -30 -30 -30 -30 -30 -30 -30 -30 -30 -30
-21 -21 -20 -20 -20 -20 -20 -20 -20 -20 -20 -20 -20 -20 -20 -20 -21 -21 -21 -21 -21 -22 -22 -22 -23 -23 -24 -24 -25 -25 -25 -25 -25 -26 -26 -27 -27 -27 -27 -28 -28 -28 -28 -28 -28 -29 -29 -29 -29 -29 -29 -29 -30 -30
-21 -21 -21 -21 -21 -21 -20 -20 -20 -20 -20 -20 -20 -20 -20 -21 -21 -21 -21 -21 -21 -22 -22 -22 -23 -23 -24 -24 -25 -25 -25 -25 -26 -26 -26 -26 -27 -27 -27 -28 -28 -28 -28 -28 -28 -28 -28 -28 -28 -28 -28 -28 -29 -29
-21 -21 -21 -21 -21 -21 -21 -20 -20 -20 -20 -20 -21 -21 -21 -21 -21 -21 -21 -22 -22 -22 -22 -22 -22 -23 -23 -24 -24 -25 -25 -25 -25 -26 -26 -27 -27 -27 -27 -27 -28 -28 -28 -28 -28 -28 -28 -28 -28 -28 -28 -28 -28 -28
-22 -22 -22 -21 -21 -21 -21 -21 -21 -21 -21 -21 -21 -21 -21 -21 -21 -21 -22 -22 -22 -22 -23 -23 -23 -23 -23 -23 -24 -24 -24 -25 -25 -26 -26 -27 -27 -27 -27 -27 -28 -28 -28 -28 -28 -28 -28 -28 -28 -28 -28 -29 -29 -29
-22 -22 -22 -22 -22 -22 -22 -21 -21 -21 -21 -21 -21 -22 -22 -22 -22 -22 -22 -23 -22 -23 -23 -23 -23 -23 -23 -24 -24 -24 -24 -25 -25 -26 -26 -27 -27 -28 -28 -28 -28 -28 -28 -28 -28 -28 -28 -28 -28 -28 -28 -28 -29 -28
-23 -23 -22 -22 -22 -22 -22 -22 -22 -22 -22 -22 -22 -22 -22 -23 -23 -23 -23 -23 -23 -23 -23 -23 -24 -23 -24 -24 -24 -24 -24 -25 -26 -26 -27 -27 -27 -27 -28 -28 -28 -28 -28 -28 -28 -28 -28 -28 -28 -28 -28 -28 -28 -28
-24 -24 -23 -23 -23 -23 -23 -23 -22 -22 -23 -23 -23 -23 -23 -23 -23 -23 -23 -24 -24 -24 -24 -24 -24 -24 -24 -24 -24 -24 -24 -25 -26 -26 -27 -27 -27 -27 -28 -28 -28 -28 -28 -28 -28 -28 -28 -28 -28 -28 -28 -28 -28 -28
-24 -24 -24 -24 -24 -24 -23 -23 -23 -23 -24 -24 -24 -23 -23 -24 -24 -24 -24 -24 -24 -24 -24 -25 -24 -24 -25 -25 -25 -25 -25 -25 -25 -26 -27 -27 -27 -27 -28 -28 -28 -28 -28 -28 -29 -29 -29 -28 -28 -28 -28 -28 -28 -28
-25 -25 -25 -25 -24 -24 -24 -24 -24 -24 -24 -24 -24 -24 -24 -24 -24 -25 -25 -25 -25 -24 -24 -25 -25 -25 -25 -25 -25 -25 -25 -26 -26 -26 -27 -27 -27 -28 -28 -28 -28 -28 -28 -29 -29 -29 -29 -29 -28 -28 -28 -28 -28 -28
-26 -26 -26 -25 -25 -25 -24 -24 -24 -24 -24 -24 -24 -24 -24 -24 -25 -25 -25 -25 -25 -25 -25 -25 -25 -25 -25 -25 -25 -25 -25 -25 -25 -26 -27 -27 -27 -28 -28 -28 -28 -28 -28 -29 -29 -29 -29 -29 -29 -29 -28 -28 -28 -28
-27 -26 -26 -26 -25 -25 -25 -24 -24 -24 -24 -24 -24 -24 -25 -25 -25 -25 -25 -25 -25 -26 -25 -25 -26 -26 -26 -26 -26 -26 -26 -26 -26 -26 -26 -27 -27 -27 -28 -28 -28 -28 -29 -29 -29 -29 -29 -29 -29 -29 -29 -28 -28 -29
-27 -27 -27 -26 -26 -25 -25 -25 -24 -24 -24 -24 -25 -25 -25 -25 -25 -25 -25 -26 -26 -26 -26 -26 -26 -26 -26 -26 -26 -26 -26 -26 -26 -27 -27 -27 -27 -27 -27 -28 -28 -28 -28 -29 -29 -29 -29 -29 -29 -29 -29 -29 -29 -29
-28 -27 -27 -26 -26 -25 -25 -25 -25 -25 -25 -25 -25 -25 -25 -25 -25 -25 -25 -27 -26 -26 -26 -26 -26 -26 -26 -26 -27 -27 -27 -26 -27 -27 -27 -27 -27 -27 -28 -28 -28 -28 -28 -29 -29 -29 -29 -29 -29 -29 -29 -29 -29 -29
-28 -28 -27 -26 -26 -26 -25 -25 -26 -26 -26 -26 -25 -25 -25 -26 -26 -25 -26 -27 -27 -27 -27 -27 -27 -27 -27 -27 -27 -27 -27 -27 -27 -27 -27 -27 -28 -28 -28 -28 -28 -29 -29 -29 -29 -29 -29 -30 -30 -30 -29 -29 -29 -29
-29 -28 -27 -26 -26 -26 -26 -26 -26 -27 -27 -27 -26 -27 -27 -27 -26 -26 -27 -27 -27 -27 -27 -27 -27 -27 -27 -27 -27 -27 -27 -27 -27 -28 -27 -28 -28 -28 -28 -28 -28 -29 -29 -30 -30 -30 -30 -30 -30 -30 -30 -30 -30 -30
-29 -28 -27 -27 -27 -27 -27 -27 -27 -27 -27 -27 -27 -27 -27 -27 -27 -27 -27 -27 -27 -27 -27 -27 -27 -27 -28 -28 -28 -28 -27 -27 -28 -28 -28 -28 -28 -28 -28 -28 -28 -29 -29 -30 -30 -30 -30 -30 -30 -30 -30 -30 -30 -30
-29 -28 -28 -28 -28 -28 -28 -28 -28 -28 -28 -28 -28 -28 -28 -27 -28 -28 -28 -28 -28 -28 -28 -28 -28 -28 -28 -28 -28 -28 -28 -28 -28 -28 -28 -29 -28 -28 -28 -28 -28 -29 -29 -30 -30 -30 -30 -30 -30 -30 -30 -30 -30 -30
-29 -28 -28 -28 -29 -28 -28 -28 -28 -29 -29 -29 -29 -29 -29 -29 -29 -28 -28 -28 -28 -28 -28 -28 -28 -28 -28 -28 -28 -28 -28 -28 -28 -28 -29 -29 -28 -28 -28 -28 -28 -29 -29 -30 -30 -30 -30 -30 -30 -30 -31 -30 -30 -31
-29 -29 -29 -29 -29 -29 -29 -29 -29 -30 -30 -30 -29 -29 -29 -29 -29 -29 -29 -28 -28 -29 -29 -28 -28 -28 -28 -28 -28 -28 -28 -29 -28 -28 -28 -28 -28 -28 -28 -28 -28 -29 -29 -30 -30 -30 -31 -31 -31 -31 -31 -31 -31 -31
-30 -30 -30 -30 -30 -30 -30 -30 -30 -30 -30 -30 -30 -30 -30 -29 -29 -29 -29 -29 -29 -29 -29 -29 -29 -29 -28 -28 -28 -29 -29 -29 -28 -28 -28 -28 -28 -28 -29 -29 -29 -29 -29 -30 -30 -31 -31 -31 -31 -31 -31 -31 -31 -31
-31 -31 -31 -31 -30 -31 -31 -31 -31 -31 -30 -30 -30 -30 -30 -30 -29 -29 -29 -30 -29 -29 -29 -29 -29 -29 -29 -29 -29 -29 -29 -29 -29 -28 -28 -28 -28 -29 -29 -29 -29 -29 -30 -30 -30 -31 -31 -31 -31 -31 -31 -31 -31 -31
-31 -31 -31 -31 -31 -31 -31 -31 -31 -31 -31 -30 -30 -30 -30 -30 -30 -30 -30 -30 -29 -29 -29 -29 -29 -29 -29 -29 -29 -29 -29 -29 -29 -29 -29 -29 -29 -29 -29 -29 -29 -30 -30 -30 -31 -31 -31 -31 -31 -31 -31 -31 -32 -32
Height
5535 5539 5543 5545 5546 5546 5550 5550 5551 5551 5550 5549 5548 5548 5547 5545 5542 5540 5536 5532 5529 5522 5515 5507 5498 5489 5482 5479 5477 5476 5474 5472 5471 5468 5464 5461 5459 5459 5457 5456 5456 5457 5458 5458 5458 5458 5459 5457 5458 5461 5463 5462 5463 5463
5529 5533 5538 5535 5537 5539 5543 5545 5547 5547 5546 5546 5545 5545 5544 5542 5540 5537 5534 5530 5526 5521 5515 5508 5499 5491 5484 5481 5479 5478 5476 5474 5472 5471 5469 5467 5465 5462 5461 5459 5459 5459 5458 5458 5458 5458 5457 5457 5458 5458 5459 5460 5459 5459
5525 5525 5525 5529 5534 5537 5540 5542 5542 5543 5543 5543 5542 5542 5541 5540 5537 5535 5532 5528 5524 5521 5515 5508 5500 5492 5485 5482 5481 5480 5477 5475 5474 5474 5472 5470 5468 5467 5464 5463 5462 5461 5459 5459 5458 5457 5456 5457 5456 5455 5455 5455 5454 5455
5514 5519 5524 5528 5531 5534 5536 5537 5538 5539 5540 5540 5540 5539 5538 5537 5535 5533 5530 5527 5523 5519 5514 5509 5501 5494 5488 5483 5482 5480 5478 5476 5475 5474 5472 5471 5469 5467 5465 5464 5464 5463 5462 5460 5457 5457 5456 5456 5453 5453 5454 5454 5454 5454
5512 5517 5521 5525 5528 5530 5532 5533 5534 5535 5536 5537 5537 5536 5535 5534 5533 5531 5528 5525 5522 5519 5514 5508 5502 5496 5490 5485 5481 5480 5478 5477 5474 5473 5471 5470 5469 5467 5464 5464 5462 5461 5459 5458 5456 5456 5454 5452 5450 5450 5449 5449 5449 5447
5509 5513 5517 5520 5524 5526 5528 5529 5531 5532 5533 5533 5534 5533 5532 5531 5530 5528 5526 5524 5519 5516 5512 5508 5503 5497 5491 5486 5482 5480 5478 5477 5475 5472 5470 5468 5467 5466 5463 5461 5459 5456 5455 5453 5452 5450 5447 5446 5444 5443 5441 5441 5441 5440
5503 5507 5512 5516 5519 5522 5524 5526 5527 5528 5530 5530 5530 5530 5529 5528 5526 5525 5524 5521 5517 5514 5510 5507 5503 5497 5492 5488 5483 5480 5477 5475 5474 5472 5470 5467 5465 5464 5461 5460 5457 5455 5452 5450 5447 5444 5439 5436 5435 5436 5434 5435 5434 5433
5497 5502 5506 5510 5514 5517 5519 5521 5523 5525 5526 5527 5527 5526 5526 5525 5523 5522 5520 5518 5515 5512 5509 5505 5501 5497 5493 5489 5485 5480 5477 5474 5472 5469 5467 5465 5462 5461 5459 5456 5454 5452 5450 5447 5442 5438 5434 5433 5432 5431 5430 5430 5429 5428
5492 5496 5500 5504 5508 5511 5514 5516 5518 5520 5522 5522 5523 5523 5522 5521 5520 5519 5517 5514 5512 5511 5506 5503 5500 5496 5493 5489 5485 5482 5478 5474 5471 5467 5463 5461 5458 5456 5455 5453 5451 5449 5447 5444 5441 5437 5433 5429 5428 5426 5426 5426 5425 5424
5485 5490 5494 5498 5501 5504 5507 5510 5513 5516 5517 5517 5518 5519 5518 5518 5517 5515 5513 5511 5508 5506 5503 5501 5498 5494 5492 5488 5484 5481 5478 5474 5470 5467 5462 5459 5456 5453 5451 5451 5449 5447 5443 5440 5437 5435 5432 5429 5427 5425 5423 5422 5421 5419
5479 5483 5488 5491 5494 5498 5501 5505 5508 5510 5511 5513 5513 5514 5514 5513 5513 5511 5509 5508 5505 5503 5500 5497 5494 5491 5488 5485 5482 5479 5476 5472 5469 5466 5462 5458 5455 5452 5450 5447 5445 5442 5439 5436 5433 5431 5428 5425 5423 5421 5419 5417 5415 5412
5472 5477 5481 5484 5488 5492 5495 5498 5502 5504 5506 5508 5509 5509 5509 5509 5508 5508 5505 5504 5502 5499 5496 5493 5491 5488 5485 5481 5478 5476 5472 5469 5467 5464 5460 5456 5453 5450 5447 5444 5442 5439 5435 5432 5429 5426 5423 5419 5417 5414 5412 5409 5407 5404
5465 5470 5474 5478 5482 5486 5489 5492 5495 5498 5500 5502 5503 5504 5504 5504 5503 5502 5501 5499 5497 5494 5492 5489 5486 5484 5481 5478 5475 5471 5468 5466 5463 5460 5458 5455 5451 5447 5444 5441 5438 5436 5433 5429 5426 5422 5419 5416 5412 5408 5405 5401 5397 5393
5457 5462 5467 5471 5474 5478 5481 5485 5489 5492 5494 5496 5497 5498 5498 5498 5497 5496 5495 5494 5492 5490 5487 5484 5482 5480 5476 5473 5469 5466 5464 5461 5458 5456 5454 5451 5448 5444 5441 5438 5435 5432 5428 5425 5422 5418 5415 5411 5407 5402 5398 5394 5390 5385
5450 5454 5459 5463 5467 5470 5474 5478 5481 5484 5487 5489 5490 5491 5492 5491 5491 5490 5489 5487 5486 5485 5482 5480 5477 5475 5471 5467 5465 5461 5457 5455 5452 5450 5448 5446 5443 5439 5436 5433 5430 5427 5424 5421 5417 5414 5410 5406 5402 5397 5392 5386 5381 5376
5442 5447 5451 5455 5459 5463 5467 5470 5473 5477 5479 5482 5484 5483 5484 5484 5484 5483 5482 5480 5479 5478 5476 5473 5471 5468 5466 5462 5460 5455 5453 5450 5447 5444 5441 5439 5436 5434 5431 5428 5425 5422 5419 5415 5412 5408 5404 5400 5397 5392 5386 5380 5374 5368
5435 5439 5444 5448 5452 5456 5460 5463 5466 5468 5471 5476 5475 5475 5477 5477 5476 5475 5475 5472 5471 5470 5468 5466 5465 5463 5460 5456 5453 5449 5448 5445 5441 5437 5434 5431 5429 5425 5423 5420 5418 5415 5412 5409 5406 5403 5399 5395 5390 5386 5380 5374 5368 5361
5427 5432 5436 5440 5444 5448 5452 5455 5457 5461 5465 5466 5466 5465 5467 5468 5468 5467 5467 5465 5464 5462 5461 5460 5458 5456 5452 5450 5446 5443 5440 5438 5435 5431 5427 5424 5422 5419 5416 5413 5411 5408 5405 5403 5400 5397 5393 5389 5384 5379 5374 5368 5362 5355
5420 5424 5428 5432 5436 5440 5443 5446 5449 5453 5456 5456 5457 5456 5458 5459 5458 5458 5457 5456 5455 5454 5453 5452 5449 5448 5445 5442 5439 5436 5432 5429 5426 5423 5421 5417 5414 5411 5409 5406 5403 5400 5397 5395 5393 5390 5386 5383 5378 5374 5369 5363 5357 5349
5411 5415 5420 5424 5428 5432 5434 5438 5440 5443 5447 5447 5448 5448 5449 5449 5448 5448 5448 5447 5447 5446 5444 5442 5440 5439 5436 5434 5431 5428 5425 5422 5419 5415 5412 5409 5405 5402 5400 5398 5395 5392 5390 5388 5386 5383 5380 5376 5372 5367 5363 5357 5351 5344
5403 5408 5412 5416 5419 5422 5425 5428 5431 5434 5437 5438 5438 5438 5439 5439 5439 5438 5437 5437 5439 5437 5434 5433 5432 5429 5427 5426 5423 5420 5417 5413 5410 5407 5403 5399 5396 5394 5392 5390 5387 5385 5383 5381 5378 5376 5373 5370 5366 5361 5357 5351 5345 5338
5394 5398 5403 5405 5408 5412 5416 5419 5421 5425 5427 5428 5428 5428 5428 5429 5428 5427 5428 5430 5429 5428 5425 5425 5423 5420 5419 5416 5414 5411 5408 5405 5402 5398 5394 5391 5387 5384 5383 5382 5379 5377 5375 5373 5371 5368 5366 5363 5360 5355 5351 5346 5340 5334
5384 5388 5392 5396 5400 5404 5409 5410 5412 5414 5416 5417 5417 5417 5418 5418 5418 5418 5419 5420 5419 5417 5416 5415 5413 5411 5410 5408 5405 5402 5399 5396 5393 5389 5386 5383 5379 5377 5375 5373 5371 5370 5368 5366 5363 5361 5359 5356 5353 5349 5346 5341 5335 5330
5374 5377 5382 5385 5391 5396 5399 5401 5402 5403 5403 5404 5405 5406 5407 5407 5408 5408 5410 5410 5408 5407 5406 5405 5403 5402 5400 5398 5395 5392 5388 5386 5383 5380 5377 5374 5372 5371 5368 5365 5362 5361 5359 5357 5355 5353 5352 5349 5347 5343 5340 5336 5330 5325
5362 5365 5372 5378 5383 5387 5389 5392 5393 5393 5394 5393 5394 5394 5396 5396 5398 5400 5402 5400 5398 5397 5396 5395 5394 5392 5390 5388 5385 5382 5379 5377 5373 5370 5368 5365 5364 5362 5360 5357 5354 5351 5350 5349 5348 5346 5344 5342 5340 5337 5333 5330 5326 5321
5348 5354 5363 5369 5373 5377 5379 5381 5383 5382 5381 5383 5384 5385 5385 5386 5388 5391 5392 5388 5388 5387 5387 5386 5384 5382 5380 5378 5375 5372 5369 5366 5364 5361 5359 5357 5355 5353 5351 5349 5346 5343 5341 5341 5339 5338 5337 5335 5333 5330 5327 5324 5320 5316
5336 5348 5356 5359 5363 5366 5368 5370 5370 5371 5371 5372 5373 5374 5375 5376 5378 5380 5378 5377 5377 5377 5376 5374 5373 5371 5369 5366 5363 5361 5358 5356 5354 5352 5350 5348 5346 5344 5342 5340 5337 5334 5332 5331 5331 5330 5329 5328 5326 5323 5321 5318 5314 5311
5332 5339 5347 5349 5350 5353 5354 5357 5358 5360 5361 5361 5362 5362 5363 5366 5368 5367 5366 5367 5366 5366 5365 5364 5362 5360 5358 5355 5352 5351 5349 5347 5345 5343 5341 5339 5337 5334 5332 5330 5328 5325 5323 5323 5322 5321 5320 5319 5318 5316 5314 5311 5308 5305
5324 5331 5332 5335 5338 5339 5342 5346 5348 5350 5349 5349 5350 5350 5353 5353 5354 5354 5355 5355 5355 5354 5353 5352 5351 5349 5346 5344 5342 5340 5338 5336 5334 5332 5331 5329 5327 5324 5322 5319 5318 5316 5314 5313 5312 5312 5312 5311 5310 5309 5306 5304 5302 5298
5314 5317 5319 5322 5325 5329 5333 5335 5336 5335 5335 5337 5339 5340 5341 5341 5341 5343 5344 5344 5344 5342 5340 5339 5338 5337 5335 5333 5331 5329 5327 5325 5323 5322 5320 5319 5316 5313 5310 5308 5307 5305 5304 5304 5303 5303 5303 5302 5302 5301 5298 5296 5294 5292
5301 5303 5306 5309 5313 5318 5320 5321 5321 5321 5323 5325 5326 5327 5329 5329 5330 5331 5332 5331 5330 5329 5328 5327 5325 5324 5323 5321 5319 5318 5316 5315 5312 5310 5308 5306 5304 5302 5300 5298 5297 5296 5294 5294 5295 5295 5295 5294 5294 5293 5291 5289 5287 5284
5287 5290 5294 5297 5301 5304 5305 5306 5306 5308 5310 5312 5314 5315 5316 5317 5318 5319 5319 5317 5316 5315 5315 5314 5312 5311 5310 5308 5308 5307 5305 5303 5301 5298 5297 5295 5293 5291 5289 5288 5287 5286 5286 5286 5286 5286 5286 5286 5285 5284 5283 5281 5279 5276
5274 5277 5280 5282 5286 5288 5292 5293 5294 5295 5298 5300 5302 5303 5304 5304 5305 5306 5305 5303 5303 5303 5302 5301 5300 5299 5298 5296 5295 5294 5293 5291 5289 5288 5286 5285 5283 5282 5281 5280 5278 5278 5278 5278 5278 5278 5278 5278 5277 5276 5274 5272 5270 5268
Wind_Speed
17 16 13 12 12 13 13 12 12 11 9 8 7 9 11 13 16 19 22 25 27 31 34 37 37 31 23 18 15 10 11 12 13 13 16 21 24 25 21 9 8 7 3 6 7 8 1 7 5 3 8 9 11 15
16 15 14 11 12 12 12 12 10 8 7 6 6 8 10 12 15 18 20 23 26 28 31 33 34 28 20 14 11 8 10 10 14 14 13 20 19 17 20 12 5 5 5 8 7 5 7 4 5 7 8 14 15 14
17 13 11 13 14 13 13 12 9 7 6 5 5 7 8 11 14 16 18 21 24 25 28 30 32 29 18 10 7 6 9 8 11 12 12 14 15 12 11 13 12 11 10 3 9 5 6 4 3 7 9 14 18 18
15 14 15 16 16 15 14 12 10 7 6 4 5 7 8 10 12 14 16 19 21 23 25 26 27 28 22 12 6 6 8 9 6 9 10 13 16 16 12 9 7 7 9 12 16 15 6 8 3 8 8 10 12 14
18 17 18 19 18 17 15 12 10 7 6 5 5 5 8 10 11 13 15 17 18 20 21 23 24 26 24 18 10 5 5 7 7 8 10 12 15 16 17 17 17 17 16 17 18 19 19 23 24 23 24 25 26 26
21 20 19 20 20 18 15 12 10 8 7 5 4 5 7 9 10 12 13 15 17 18 19 21 21 23 24 21 15 6 4 5 6 7 9 11 10 12 15 15 16 18 17 21 25 29 30 29 26 20 19 21 24 22
22 21 22 22 21 19 16 13 11 9 7 5 3 4 6 8 10 12 14 15 15 16 18 19 20 21 21 21 19 14 10 8 9 9 10 9 9 11 10 12 14 17 18 21 26 28 25 21 22 20 20 17 14 12
25 24 25 24 22 19 16 14 12 10 8 6 3 3 6 8 9 11 12 13 14 15 16 17 19 19 19 20 19 19 17 16 13 13 14 14 17 14 13 15 16 15 16 20 24 26 17 12 11 14 16 16 15 15
28 28 28 26 23 20 18 17 14 12 10 7 4 2 5 7 10 11 12 13 14 15 15 16 17 18 18 18 18 18 18 17 15 15 16 14 18 14 16 17 13 17 17 21 20 20 20 16 12 12 13 13 16 17
30 30 30 28 25 23 21 19 16 14 12 10 7 5 5 7 10 12 13 13 14 15 14 15 16 17 17 18 18 18 18 17 16 15 16 14 12 11 12 14 17 18 20 22 20 18 16 15 13 12 14 16 19 21
33 33 32 29 27 25 23 21 18 16 15 12 10 7 7 8 9 11 12 13 14 15 15 14 14 16 17 17 18 18 18 18 17 17 16 13 11 10 8 9 12 17 19 20 21 20 19 18 19 19 19 21 24 27
34 35 33 30 28 27 26 24 21 20 17 14 11 10 9 9 10 11 12 14 15 15 16 16 15 15 17 18 18 19 18 19 18 17 16 13 14 13 12 12 14 16 18 19 19 20 20 21 23 25 27 28 31 33
35 36 34 32 30 29 27 25 24 23 20 18 14 12 11 12 11 13 13 14 15 17 17 17 17 17 17 18 18 19 19 19 19 19 17 16 15 14 13 13 14 16 17 18 19 20 20 20 21 22 23 25 27 31
36 37 36 34 32 31 29 28 26 25 23 21 18 16 15 14 15 15 15 16 16 18 19 19 19 18 20 19 21 21 21 21 21 20 18 18 19 18 18 16 16 18 19 21 21 22 23 23 24 26 27 28 27 27
38 38 37 34 33 32 31 30 28 27 25 23 20 19 17 17 18 18 19 20 18 18 18 19 18 18 21 23 20 24 25 25 23 22 22 20 20 21 22 21 20 20 20 20 20 22 23 25 28 29 29 30 31 33
39 39 37 36 34 33 32 32 31 28 26 24 20 22 20 19 20 21 23 24 24 20 20 22 20 20 21 23 24 26 24 24 24 23 23 23 23 22 22 22 22 22 22 23 23 24 25 28 30 31 29 30 33 36
36 38 36 35 34 34 34 34 32 31 28 22 23 27 23 23 25 25 24 26 25 23 22 22 21 20 23 25 26 26 25 24 24 24 25 24 26 28 26 25 25 24 24 25 24 24 25 28 31 31 31 33 35 38
37 34 33 32 32 32 32 33 35 33 26 26 28 32 28 27 26 27 25 25 25 25 25 22 22 20 26 26 25 27 27 25 23 24 27 27 24 26 28 27 26 25 26 25 25 25 26 28 31 31 32 34 37 40
36 34 33 33 33 33 32 33 34 30 28 30 31 33 30 28 28 28 27 26 25 25 24 23 25 25 24 24 26 27 29 30 29 27 26 28 28 27 27 27 27 27 26 26 26 26 27 28 31 30 31 33 38 40
40 38 35 32 32 32 33 33 32 31 26 28 29 31 31 31 31 29 28 27 26 23 24 26 26 26 27 26 26 27 30 31 31 32 30 30 29 30 28 25 26 27 26 26 25 25 27 28 30 30 32 34 37 41
37 36 34 34 33 34 36 34 33 31 28 28 30 32 33 34 32 32 31 30 24 24 28 28 26 28 28 28 28 30 30 32 32 33 32 32 32 30 29 26 25 27 25 25 25 25 26 26 29 29 30 34 37 39
36 34 32 32 34 35 36 35 35 33 33 32 33 34 33 32 33 34 34 29 26 27 30 27 29 29 28 29 30 31 32 33 33 33 32 32 30 27 26 26 26 26 25 25 25 24 25 26 28 29 29 32 35 38
38 37 36 36 35 34 33 34 35 35 36 35 33 34 33 32 33 34 34 30 27 30 30 29 30 29 29 30 30 31 33 33 33 33 31 29 27 24 22 24 26 27 26 25 24 23 23 25 26 28 28 31 33 37
40 39 37 35 32 30 28 28 30 32 33 31 31 32 34 35 36 36 34 29 31 31 30 30 31 30 31 32 32 33 34 33 33 33 30 29 27 24 24 26 29 30 28 26 25 24 23 24 25 26 27 29 32 35
42 43 41 36 35 33 31 30 31 33 31 32 34 35 35 35 35 34 30 30 31 31 31 31 31 33 33 33 34 34 34 33 33 31 30 29 26 24 26 28 31 31 28 25 25 24 23 22 23 25 25 27 30 32
47 46 43 39 37 37 36 36 35 35 35 35 35 35 34 34 33 31 28 31 32 32 32 32 33 34 35 35 35 35 33 32 32 31 30 27 26 25 26 26 27 29 27 25 24 23 23 22 22 24 23 25 28 30
49 45 41 39 37 38 37 37 37 37 37 37 37 35 35 35 34 31 32 33 33 32 32 33 35 35 36 36 36 35 33 31 31 29 28 28 28 27 27 27 27 25 25 24 24 24 22 22 22 23 23 24 26 28
45 42 38 38 39 39 39 39 40 40 39 38 37 36 36 36 34 34 34 33 32 33 34 35 36 37 36 35 34 34 32 30 30 29 29 31 32 31 30 29 29 27 24 24 25 24 23 22 22 22 22 23 25 27
43 40 41 41 41 41 41 39 38 35 33 34 37 37 36 35 35 35 34 34 35 36 37 38 37 36 36 36 35 34 33 33 32 32 32 33 33 34 32 33 32 29 26 24 23 23 22 22 22 22 23 23 24 26
42 43 44 44 44 42 40 37 36 37 39 39 38 38 37 37 38 37 37 37 38 39 39 39 39 38 38 37 36 34 33 32 33 33 34 32 32 32 32 32 29 28 27 25 23 23 22 22 21 22 23 24 25 25
43 43 44 44 43 41 41 41 42 43 43 42 42 42 41 42 42 41 40 41 41 40 39 38 38 38 37 36 35 33 32 32 33 34 33 33 32 30 30 29 27 27 27 25 23 22 22 22 22 22 23 25 26 26
44 44 44 44 44 44 45 45 46 46 46 46 45 44 43 43 42 42 41 41 41 40 39 37 37 36 35 35 33 32 33 33 32 32 32 30 28 27 27 27 28 26 25 24 22 21 22 22 23 23 24 26 27 27
40 41 42 42 42 43 42 42 42 43 43 43 42 42 42 42 42 41 41 41 40 38 36 35 34 34 34 35 34 33 32 32 31 29 28 25 25 25 24 24 22 21 22 23 22 22 22 23 24 25 26 27 28 29
Wind_Direction
207 215 226 226 229 235 250 259 265 273 285 306 327 334 338 349 355 355 354 358 1 3 3 3 360 357 5 16 23 19 25 26 12 17 29 51 74 61 54 41 51 52 8 332 316 351 2 327 270 193 231 263 249 253
214 223 231 233 239 246 254 253 259 271 280 289 313 326 337 352 351 354 355 357 1 5 3 7 4 3 12 27 26 45 48 27 19 27 24 28 45 35 43 75 79 42 27 352 4 352 352 0 260 268 274 231 237 231
224 229 233 239 239 244 240 239 246 249 258 281 309 322 338 348 350 354 356 358 360 6 5 6 7 9 18 43 49 45 30 25 28 29 24 20 26 34 27 34 56 68 75 79 57 75 98 66 253 261 257 255 269 281
226 228 234 235 232 233 230 231 231 232 249 281 312 323 340 348 348 352 356 358 358 3 6 6 9 11 17 48 57 30 17 15 351 354 8 6 6 2 12 15 0 5 349 340 335 324 307 206 162 237 252 255 282 294
222 225 230 226 228 227 224 221 220 227 250 275 294 327 344 347 349 351 358 355 356 2 3 5 10 12 15 18 45 35 347 328 328 321 327 330 335 333 331 327 325 322 318 317 313 311 300 286 299 295 290 283 293 304
220 222 225 223 225 224 222 220 227 236 247 260 289 327 341 346 348 353 357 352 355 357 359 3 6 13 14 15 11 358 347 353 355 354 325 298 312 309 310 321 324 323 325 323 320 314 307 296 290 294 294 297 298 301
218 220 220 221 223 223 223 226 232 236 243 253 291 335 342 343 348 349 352 354 353 352 354 358 4 10 12 14 12 3 346 326 317 316 313 313 314 320 317 320 319 319 317 322 322 325 318 308 291 276 282 295 290 283
218 218 216 217 221 222 223 227 229 230 234 240 270 335 342 343 346 348 347 346 348 348 351 352 357 4 5 6 9 7 5 359 341 326 317 305 302 304 305 301 310 310 321 327 326 332 330 312 322 305 282 276 277 271
219 215 212 215 217 218 221 224 223 222 221 229 250 299 332 346 346 345 348 345 345 345 346 346 348 353 355 359 1 2 1 4 357 346 336 320 304 305 290 296 295 305 311 320 325 324 338 338 305 285 276 273 274 276
220 214 212 214 216 216 218 220 218 216 217 226 239 262 305 331 343 342 346 346 343 342 339 340 341 343 344 346 352 353 351 354 357 359 357 349 337 317 295 283 299 311 315 318 316 324 322 324 323 302 290 286 278 279
218 215 212 214 217 218 218 219 216 214 219 228 242 257 277 301 321 336 346 344 341 338 338 333 336 334 334 334 336 339 340 345 347 351 355 354 349 349 347 329 327 325 323 324 319 314 310 306 298 291 286 279 277 278
218 216 215 216 219 220 219 216 215 217 222 227 239 259 275 287 301 316 330 336 339 338 337 331 328 327 324 323 324 325 328 328 334 338 346 341 337 342 346 346 337 332 332 334 334 332 324 313 300 293 289 285 282 281
219 217 218 219 219 222 222 219 218 221 225 230 236 250 270 283 294 305 313 318 325 331 336 331 324 323 318 316 316 317 318 317 320 323 333 330 330 328 327 330 330 328 330 330 331 333 332 329 323 318 314 312 306 298
220 218 218 221 222 222 223 222 223 226 231 236 241 250 262 274 284 293 298 306 312 316 321 326 326 322 317 317 315 314 314 314 315 318 320 320 320 317 318 322 323 325 329 331 329 328 329 330 329 326 322 319 318 317
220 219 219 222 224 225 225 225 225 229 235 242 249 253 259 269 278 287 292 296 299 304 305 307 315 318 314 318 316 311 313 318 318 320 315 315 311 306 308 313 317 317 318 322 323 325 329 330 331 329 325 322 320 319
222 220 220 224 227 227 227 228 229 232 237 242 249 253 257 268 276 281 286 288 294 299 299 303 309 311 315 311 310 305 313 314 316 313 313 312 308 303 299 298 302 308 312 315 320 322 325 327 330 331 331 330 328 327
226 222 224 227 229 231 230 231 233 236 240 243 246 256 262 271 278 282 283 285 292 293 294 299 300 305 303 304 307 310 313 315 314 312 309 308 308 307 304 302 302 305 304 307 310 313 318 323 327 330 333 335 336 336
220 220 223 227 229 231 233 236 239 242 242 244 248 256 261 267 273 276 281 283 287 290 292 296 294 298 293 303 305 304 308 308 307 304 304 305 305 301 300 299 299 299 300 302 305 311 315 321 325 330 333 336 337 339
217 216 219 222 225 228 231 235 240 243 244 248 253 258 262 265 267 271 275 277 280 284 290 291 291 292 296 296 295 298 302 306 308 308 304 302 301 297 297 299 295 296 298 303 306 308 312 317 322 328 331 336 339 341
220 220 221 226 229 233 235 238 242 246 244 248 253 259 265 266 266 267 269 272 276 283 284 282 288 294 294 296 296 297 300 302 304 307 308 304 299 294 298 298 295 293 296 299 302 304 308 315 322 326 331 336 339 342
227 231 233 232 233 235 237 239 242 248 251 254 259 265 266 266 265 265 265 269 275 276 276 282 290 291 293 296 298 300 302 303 304 304 305 304 298 291 290 294 293 289 293 296 299 301 305 312 320 325 329 336 341 342
223 226 229 229 231 234 238 244 249 253 259 264 266 267 265 264 263 264 267 268 270 273 276 284 287 290 296 297 299 302 302 303 303 303 307 306 301 297 291 289 287 288 289 291 295 298 303 310 318 323 328 333 340 343
229 233 235 235 239 242 245 250 254 257 259 260 262 262 261 261 260 264 266 267 269 273 279 282 287 291 294 296 299 300 300 301 302 303 305 301 301 302 294 288 288 288 288 291 295 298 301 307 314 321 326 332 335 344
235 236 238 239 239 246 253 256 258 259 259 260 258 256 258 262 265 267 268 267 270 274 280 284 288 291 293 295 299 299 300 302 302 302 301 294 294 297 295 292 290 291 294 294 293 296 299 304 311 318 323 331 335 341
233 235 238 243 246 252 258 255 254 255 257 258 258 260 264 265 267 269 268 266 271 276 280 284 287 289 292 296 298 298 300 301 299 299 298 293 292 297 296 292 292 292 291 291 289 291 295 299 307 314 320 329 333 338
232 235 238 244 247 248 250 249 250 253 255 259 262 264 266 267 269 270 268 270 273 277 281 284 286 289 293 295 296 299 301 300 299 299 295 291 291 294 295 296 296 292 290 285 284 285 288 293 302 310 316 324 327 333
234 238 241 244 245 245 247 248 250 253 256 259 261 264 266 267 268 269 270 272 275 280 283 285 287 290 293 295 297 298 299 299 299 297 293 290 292 294 295 296 297 292 285 281 281 282 286 289 296 305 310 318 322 327
233 236 238 239 241 243 244 246 249 252 255 260 264 266 266 267 270 271 273 275 278 279 281 283 285 289 290 293 295 296 296 295 293 291 290 292 294 295 295 292 291 288 279 274 278 278 279 283 289 299 304 311 318 322
236 238 239 242 244 245 245 247 252 257 261 260 260 263 266 267 269 272 274 275 277 280 284 285 287 288 290 291 293 293 293 291 289 288 289 291 293 292 292 289 285 281 273 266 270 274 275 277 283 294 299 304 313 318
237 238 239 241 243 245 248 249 252 255 258 260 261 264 267 270 271 272 275 278 280 280 281 284 286 286 287 288 290 290 289 288 288 288 290 292 290 290 291 291 288 280 272 263 264 268 270 272 279 290 295 299 306 313
239 241 242 244 245 248 251 253 255 258 260 262 264 266 268 270 273 276 277 278 279 280 282 284 285 285 286 287 287 286 287 287 287 289 291 290 290 287 285 288 287 283 273 263 266 266 266 268 276 286 293 296 301 309
240 243 245 246 246 248 249 251 253 256 258 261 264 267 269 271 273 273 275 277 279 281 283 285 285 285 285 284 286 287 286 286 286 287 288 289 287 284 285 286 286 281 269 266 266 261 264 267 275 285 293 298 298 304
239 240 242 244 244 245 247 250 252 254 256 259 261 263 266 268 271 273 275 278 280 282 282 282 283 283 284 286 288 287 286 284 284 283 282 284 284 285 287 287 281 273 270 268 260 260 265 269 275 285 294 297 297 300